GW2878 Weather Reports


time (UTC)temp
F
wind
direction
speed
knots
gust
knots
rain 1hr
in
rain 24hr
in
rain mn
in
humidity
%
barometer
mb
20260505114513 37 208 0.9 2.6 0.00 0.00 0.00 89 1009.1
20260505114009 37 217 2.6 3.5 0.00 0.00 0.00 89 1009.4
20260505113506 37 242 1.7 2.6 0.00 0.00 0.00 89 1009.2
20260505113002 37 262 2.6 3.5 0.00 0.00 0.00 89 1009.2
20260505112458 37 227 1.7 1.7 0.00 0.00 0.00 89 1009.1
20260505111955 37 216 1.7 2.6 0.00 0.00 0.00 89 1009.1
20260505111450 37 243 0.9 1.7 0.00 0.00 0.00 89 1009.2
20260505110947 37 48 0.9 1.7 0.00 0.00 0.00 89 1009.2
20260505110444 37 172 0.9 1.7 0.00 0.00 0.00 89 1008.9
20260505101914 37 50 3.5 6.1 0.00 0.00 0.00 87 1008.9
20260505101409 37 45 6.1 7.0 0.00 0.00 0.00 87 1009.1
20260505100905 37 58 3.5 6.1 0.00 0.00 0.00 87 1009.1
20260505100402 36 40 5.2 7.0 0.00 0.00 0.00 87 1009.1
20260505095857 37 60 5.2 7.8 0.00 0.00 0.00 87 1008.8
20260505095355 37 54 6.1 8.7 0.00 0.00 0.00 86 1008.9
20260505094851 37 76 4.3 9.6 0.00 0.00 0.00 86 1008.9
20260505094348 37 69 7.0 7.8 0.00 0.00 0.00 86 1009.1
20260505093844 37 56 5.2 13.9 0.00 0.00 0.00 85 1008.9
20260505093341 38 35 9.6 11.3 0.00 0.00 0.00 85 1009.1
20260505092838 37 60 10.4 11.3 0.00 0.00 0.00 85 1009.1
20260505092337 37 60 7.0 7.8 0.00 0.00 0.00 85 1008.9
20260505091833 38 47 7.0 8.7 0.00 0.00 0.00 84 1009.3
20260505091332 38 21 11.3 13.0 0.00 0.00 0.00 83 1009.3
20260505090829 38 61 8.7 11.3 0.00 0.00 0.00 82 1009.1
20260505090327 39 55 9.6 11.3 0.00 0.00 0.00 82 1009.2
20260505085824 39 45 5.2 8.7 0.00 0.00 0.00 82 1009.2
20260505085322 39 69 7.0 8.7 0.00 0.00 0.00 82 1008.9
20260505084819 39 24 6.1 12.2 0.00 0.00 0.00 82 1009.2
20260505084318 39 75 5.2 12.2 0.00 0.00 0.00 82 1009.1
20260505083815 39 84 7.8 12.2 0.00 0.00 0.00 82 1009.2
20260505083312 39 62 6.1 9.6 0.00 0.00 0.00 83 1009.3
20260505082808 39 51 7.0 11.3 0.00 0.00 0.00 83 1009.3
20260505082305 38 51 7.8 9.6 0.00 0.00 0.00 83 1009.5
20260505081801 38 37 9.6 9.6 0.00 0.00 0.00 83 1009.4
20260505081258 38 26 7.0 11.3 0.00 0.00 0.00 83 1009.3
20260505080755 38 60 7.8 12.2 0.00 0.00 0.00 82 1009.4
20260505080251 39 57 9.6 13.0 0.00 0.00 0.00 81 1009.7
20260505075746 39 75 11.3 13.9 0.00 0.00 0.00 79 1009.5
20260505075244 40 79 4.3 7.8 0.00 0.00 0.00 76 1009.5
20260505074741 40 10 6.1 8.7 0.00 0.00 0.00 76 1009.3
20260505074238 39 68 2.6 5.2 0.00 0.00 0.00 77 1009.5
20260505073736 39 81 2.6 3.5 0.00 0.00 0.00 77 1009.3
20260505073233 39 85 3.5 5.2 0.00 0.00 0.00 77 1009.2
20260505072730 39 83 3.5 3.5 0.00 0.00 0.00 77 1009.3
20260505072226 39 102 3.5 6.1 0.00 0.00 0.00 77 1009.4
20260505071721 39 104 3.5 5.2 0.00 0.00 0.00 78 1009.3
20260505071219 39 100 3.5 7.0 0.00 0.00 0.00 78 1009.2
20260505070716 39 66 5.2 8.7 0.00 0.00 0.00 78 1009.3
20260505070212 40 61 7.8 9.6 0.00 0.00 0.00 78 1009.2
20260505065708 40 59 5.2 8.7 0.00 0.00 0.00 78 1009.3
20260505065205 39 82 7.8 11.3 0.00 0.00 0.00 78 1009.2
20260505064702 39 8 11.3 13.0 0.00 0.00 0.00 79 1009.3
20260505064200 40 43 9.6 12.2 0.00 0.00 0.00 78 1008.9
20260505063657 40 45 9.6 15.6 0.00 0.00 0.00 76 1009.2
20260505063153 41 15 13.0 14.8 0.00 0.00 0.00 73 1009.1
20260505062649 41 35 5.2 7.8 0.00 0.00 0.00 69 1009.2
20260505062147 41 46 4.3 7.8 0.00 0.00 0.00 68 1008.9
20260505061644 42 71 7.0 9.6 0.00 0.00 0.00 69 1008.9
20260505061143 42 58 7.8 11.3 0.00 0.00 0.00 70 1008.8
20260505060640 41 55 9.6 13.0 0.00 0.00 0.00 70 1008.9
20260505060136 41 44 14.8 19.1 0.00 0.00 0.00 69 1008.9
20260505055631 41 81 10.4 12.2 0.00 0.00 0.00 70 1008.9
20260505055129 41 63 10.4 15.6 0.00 0.00 0.00 69 1008.9
20260505054626 41 44 8.7 12.2 0.00 0.00 0.00 70 1009.1
20260505054124 41 47 9.6 14.8 0.00 0.00 0.00 70 1009.3
20260505053621 42 45 9.6 11.3 0.00 0.00 0.00 68 1008.9
20260505053117 42 56 9.6 14.8 0.00 0.00 0.00 67 1009.2
20260505052614 42 34 10.4 18.2 0.00 0.00 0.00 65 1008.8
20260505052112 43 53 7.8 11.3 0.00 0.00 0.00 64 1008.8
20260505051608 43 44 9.6 12.2 0.00 0.00 0.00 65 1008.9
20260505051107 42 81 9.6 13.0 0.00 0.00 0.00 66 1008.7
20260505050604 42 73 9.6 12.2 0.00 0.00 0.00 67 1008.6
20260505041532 46 71 11.3 13.9 0.00 0.00 0.00 50 1007.8
20260505041030 46 53 7.8 13.9 0.00 0.00 0.00 50 1008.0
20260505040527 46 47 7.0 8.7 0.00 0.00 0.00 51 1007.9
20260505040024 47 19 7.8 9.6 0.00 0.00 0.00 51 1007.9
20260505035520 47 34 10.4 13.0 0.00 0.00 0.00 51 1007.8
20260505035017 47 27 8.7 13.0 0.00 0.00 0.00 51 1007.8
20260505034513 46 27 10.4 12.2 0.00 0.00 0.00 53 1007.3
20260505034010 46 23 7.8 12.2 0.00 0.00 0.00 54 1007.5
20260505033507 46 20 10.4 13.9 0.00 0.00 0.00 55 1007.4
20260505033005 46 21 8.7 15.6 0.00 0.00 0.00 57 1007.3
20260505032502 46 41 9.6 14.8 0.00 0.00 0.00 60 1007.0
20260505031959 46 30 14.8 19.1 0.00 0.00 0.00 60 1007.1
20260505031456 46 26 16.5 26.1 0.00 0.00 0.00 60 1006.7
20260505030952 48 28 10.4 16.5 0.00 0.00 0.00 53 1007.0
20260505030449 48 27 11.3 20.0 0.00 0.00 0.00 51 1006.6
20260505025944 49 31 13.0 20.0 0.00 0.00 0.00 52 1006.4
20260505025442 49 18 12.2 13.9 0.00 0.00 0.00 51 1006.5
20260505024940 49 39 13.0 15.6 0.00 0.00 0.00 51 1006.4
20260505024437 49 31 14.8 15.6 0.00 0.00 0.00 50 1006.0
20260505023934 49 58 12.2 16.5 0.00 0.00 0.00 52 1006.0
20260505023431 49 35 10.4 18.2 0.00 0.00 0.00 53 1005.8
20260505022928 50 27 15.6 20.0 0.00 0.00 0.00 54 1005.9
20260505022426 50 40 15.6 19.1 0.00 0.00 0.00 52 1005.7
20260505021923 51 40 14.8 20.9 0.00 0.00 0.00 50 1005.5
20260505021419 51 10 13.0 19.1 0.00 0.00 0.00 50 1005.3
20260505020915 51 12 11.3 20.9 0.00 0.00 0.00 51 1005.4
20260505020410 52 25 11.3 20.0 0.00 0.00 0.00 48 1005.2
20260505015908 52 28 13.0 16.5 0.00 0.00 0.00 49 1005.1
20260505015405 52 48 17.4 20.9 0.00 0.00 0.00 47 1005.1
20260505014902 52 15 13.9 16.5 0.00 0.00 0.00 49 1004.8
20260505014359 53 61 10.4 14.8 0.00 0.00 0.00 49 1005.0
20260505013856 53 13 13.0 16.5 0.00 0.00 0.00 48 1004.7
20260505013353 53 29 13.0 20.0 0.00 0.00 0.00 48 1005.0
20260505012851 53 54 13.0 18.2 0.00 0.00 0.00 47 1005.1
20260505012349 54 47 16.5 20.9 0.00 0.00 0.00 46 1004.8
20260505011844 54 36 11.3 19.1 0.00 0.00 0.00 47 1005.1
20260505011341 55 14 12.2 19.1 0.00 0.00 0.00 47 1005.0
20260505010837 55 39 14.8 19.1 0.00 0.00 0.00 46 1004.5
20260505010333 55 27 13.0 19.1 0.00 0.00 0.00 46 1004.6
20260505005830 55 38 13.0 20.0 0.00 0.00 0.00 45 1004.7
20260505005327 56 30 14.8 18.2 0.00 0.00 0.00 45 1005.0
20260505004825 55 36 13.9 19.1 0.00 0.00 0.00 45 1004.8
20260505004320 55 32 14.8 16.5 0.00 0.00 0.00 47 1004.7
20260505003818 55 13 13.0 15.6 0.00 0.00 0.00 44 1004.5
20260505003315 55 36 12.2 18.2 0.00 0.00 0.00 45 1004.8
20260505002811 55 35 13.0 18.2 0.00 0.00 0.00 45 1004.8
20260505002308 56 58 13.0 16.5 0.00 0.00 0.00 44 1004.7
20260505001807 56 45 10.4 18.2 0.00 0.00 0.00 45 1004.5
20260505001303 56 22 13.9 18.2 0.00 0.00 0.00 44 1004.5
20260505000800 56 29 13.9 19.1 0.00 0.00 0.00 43 1004.4
20260505000258 57 44 16.5 20.0 0.00 0.00 0.00 41 1004.3
20260504235754 57 20 17.4 19.1 0.00 0.00 0.00 40 1004.1
20260504235251 58 29 12.2 18.2 0.00 0.00 0.00 40 1004.0
20260504234748 58 41 10.4 20.0 0.00 0.00 0.00 40 1004.3
20260504234246 57 32 9.6 13.9 0.00 0.00 0.00 39 1004.4
20260504233742 59 41 12.2 16.5 0.00 0.00 0.00 39 1004.0
20260504233237 59 56 16.5 20.0 0.00 0.00 0.00 38 1003.7
20260504232735 59 25 16.5 20.9 0.00 0.00 0.00 38 1003.8
20260504232232 60 56 8.7 12.2 0.00 0.00 0.00 37 1004.1
20260504231729 59 50 9.6 13.0 0.00 0.00 0.00 38 1004.3
20260504231225 59 15 7.0 8.7 0.00 0.00 0.00 39 1004.3
20260504230721 59 17 7.8 11.3 0.00 0.00 0.00 40 1004.1
20260504230220 59 12 8.7 9.6 0.00 0.00 0.00 38 1004.0
20260504225718 59 43 9.6 12.2 0.00 0.00 0.00 39 1003.9
20260504225214 59 41 9.6 13.9 0.00 0.00 0.00 39 1004.1
20260504224711 59 23 10.4 15.6 0.00 0.00 0.00 39 1004.1
20260504224209 59 49 11.3 12.2 0.00 0.00 0.00 39 1004.1
20260504223705 60 54 12.2 13.9 0.00 0.00 0.00 38 1003.8
20260504223200 60 29 11.3 16.5 0.00 0.00 0.00 38 1004.0
20260504222658 60 51 12.2 19.1 0.00 0.00 0.00 37 1003.8
20260504222154 60 43 10.4 16.5 0.00 0.00 0.00 39 1004.0
20260504221652 60 351 9.6 13.9 0.00 0.00 0.00 38 1004.0
20260504221149 61 67 9.6 15.6 0.00 0.00 0.00 36 1004.1
20260504220645 61 75 11.3 19.1 0.00 0.00 0.00 37 1004.1
20260504220143 61 80 6.1 7.8 0.00 0.00 0.00 34 1004.3
20260504215639 61 71 9.6 15.6 0.00 0.00 0.00 34 1004.1
20260504215136 61 51 5.2 6.1 0.00 0.00 0.00 34 1004.1
20260504214632 60 57 8.7 9.6 0.00 0.00 0.00 34 1004.4
20260504214130 61 31 6.1 7.8 0.00 0.00 0.00 34 1004.4
20260504213625 60 49 7.8 9.6 0.00 0.00 0.00 35 1004.1
20260504213122 61 73 9.6 13.9 0.00 0.00 0.00 36 1004.3
20260504212618 62 34 5.2 7.0 0.00 0.00 0.00 34 1004.4
20260504212115 61 45 11.3 13.0 0.00 0.00 0.00 35 1004.3
20260504211613 61 26 7.8 8.7 0.00 0.00 0.00 37 1004.8
20260504211109 61 52 6.1 13.0 0.00 0.00 0.00 35 1004.7
20260504210607 60 15 9.6 14.8 0.00 0.00 0.00 36 1004.5
20260504205601 59 82 13.0 14.8 0.00 0.00 0.00 36 1004.6
20260504205058 59 36 7.8 8.7 0.00 0.00 0.00 38 1004.8
20260504204556 60 61 7.8 12.2 0.00 0.00 0.00 37 1005.1
20260504204055 60 67 11.3 14.8 0.00 0.00 0.00 36 1005.0
20260504203553 61 57 9.6 13.0 0.00 0.00 0.00 36 1004.7
20260504203050 60 20 9.6 13.0 0.00 0.00 0.00 36 1004.7
20260504202545 60 80 13.0 16.5 0.00 0.00 0.00 36 1004.7
20260504202042 60 67 11.3 16.5 0.00 0.00 0.00 36 1004.7
20260504201540 60 62 13.9 18.2 0.00 0.00 0.00 36 1004.6
20260504201037 59 54 12.2 13.9 0.00 0.00 0.00 36 1004.6
20260504200533 59 37 8.7 12.2 0.00 0.00 0.00 37 1005.0
20260504200031 59 66 11.3 15.6 0.00 0.00 0.00 37 1005.2
20260504195526 58 57 11.3 13.9 0.00 0.00 0.00 38 1005.0
20260504195023 59 32 13.9 15.6 0.00 0.00 0.00 37 1005.4
20260504194520 59 80 9.6 15.6 0.00 0.00 0.00 36 1005.4
20260504194015 60 39 9.6 14.8 0.00 0.00 0.00 35 1005.3
20260504193512 59 65 7.0 9.6 0.00 0.00 0.00 35 1005.2
20260504193011 59 63 7.8 11.3 0.00 0.00 0.00 37 1005.3
20260504192509 60 53 10.4 14.8 0.00 0.00 0.00 36 1005.2
20260504192007 59 54 13.0 16.5 0.00 0.00 0.00 37 1005.1
20260504191504 59 56 8.7 13.9 0.00 0.00 0.00 37 1005.4
20260504191000 59 68 13.0 14.8 0.00 0.00 0.00 37 1005.4
20260504190455 60 40 12.2 15.6 0.00 0.00 0.00 36 1005.5
20260504185952 58 83 12.2 13.9 0.00 0.00 0.00 35 1005.8
20260504185449 59 53 10.4 14.8 0.00 0.00 0.00 37 1005.8
20260504184946 60 76 6.1 7.8 0.00 0.00 0.00 35 1005.8
20260504184441 59 50 7.8 13.9 0.00 0.00 0.00 37 1005.9
20260504183937 59 65 12.2 15.6 0.00 0.00 0.00 37 1005.5
20260504183435 59 81 8.7 13.9 0.00 0.00 0.00 36 1005.8
20260504182933 59 91 9.6 13.9 0.00 0.00 0.00 36 1005.5
20260504182429 57 79 11.3 13.9 0.00 0.00 0.00 37 1005.7
20260504181926 59 30 9.6 13.0 0.00 0.00 0.00 36 1006.0
20260504181423 59 61 13.0 16.5 0.00 0.00 0.00 35 1006.2
20260504180922 57 63 8.7 14.8 0.00 0.00 0.00 38 1006.1
20260504180421 58 53 3.5 7.8 0.00 0.00 0.00 38 1006.4
20260504175918 57 70 5.2 9.6 0.00 0.00 0.00 37 1006.4
20260504175415 58 64 11.3 13.9 0.00 0.00 0.00 38 1006.2
20260504174913 57 86 10.4 13.0 0.00 0.00 0.00 38 1006.2
20260504174410 57 104 4.3 18.2 0.00 0.00 0.00 38 1006.1
20260504173908 58 45 12.2 16.5 0.00 0.00 0.00 37 1006.1
20260504173404 57 87 13.0 15.6 0.00 0.00 0.00 38 1006.2
20260504172901 57 60 14.8 19.1 0.00 0.00 0.00 37 1006.4
20260504172357 56 59 13.0 15.6 0.00 0.00 0.00 38 1006.1
20260504171853 57 89 14.8 18.2 0.00 0.00 0.00 37 1006.2
20260504171351 56 89 14.8 21.7 0.00 0.00 0.00 39 1006.1
20260504170848 56 57 13.9 20.9 0.00 0.00 0.00 39 1006.1
20260504170344 57 79 11.3 13.9 0.00 0.00 0.00 38 1006.5
20260504160303 55 85 13.0 15.6 0.00 0.00 0.00 41 1005.8
20260504150728 55 73 10.4 12.2 0.00 0.00 0.00 41 1005.5
20260504150225 54 100 10.4 13.0 0.00 0.00 0.00 41 1005.5
20260504141154 54 304 1.7 3.5 0.00 0.00 0.00 39 1005.2
20260504140651 54 280 1.7 5.2 0.00 0.00 0.00 42 1005.4
20260504140146 52 347 5.2 7.8 0.00 0.00 0.00 43 1005.4
20260504130615 47 340 3.5 6.1 0.00 0.00 0.00 47 1004.7
20260504130112 47 288 7.0 11.3 0.00 0.00 0.00 47 1004.6